Regional Weather Roundup
Issued by NWS

Home | Current Version | Previous Version | Graphics & Text | Print | Product List | Glossary On
Versions: 1 2 3 4 5 6 7 8 9 10 11 12 13 14 15 16 17 18 19 20 21 22 23 24 25 26 27 28 29 30 31 32 33 34 35 36 37 38 39 40 41 42 43 44 45 46 47 48 49 50
000
ASUS43 KFSD 300402
RWRSD

WEATHER ROUNDUP FOR SOUTH DAKOTA
NATIONAL WEATHER SERVICE SIOUX FALLS SD
1100 PM CDT FRI MAY 29 2015

NOTE: "FAIR" INDICATES FEW OR NO CLOUDS BELOW 12,000 FEET WITH NO
SIGNIFICANT WEATHER AND/OR OBSTRUCTIONS TO VISIBILITY.


SDZ001>005-009-010-012>017-300500-
NORTHWEST AND NORTH CENTRAL SOUTH DAKOTA

CITY           SKY/WX    TMP DP  RH WIND       PRES   REMARKS
BUFFALO          N/A     46  37  71 E9        30.22R
FAITH            N/A     43  36  76 NE5       30.29R
MOBRIDGE       PTCLDY    43  39  86 N8        30.25R
$$

SDZ012>016-024>037-041>051-057-063-072>074-300500-
SOUTHWEST AND SOUTH CENTRAL SOUTH DAKOTA

CITY           SKY/WX    TMP DP  RH WIND       PRES   REMARKS
RAPID CTY ARPT CLEAR     42  37  82 NE7       30.29R
PIERRE         PTCLDY    45  40  82 NW9       30.25R
CUSTER         CLOUDY    43  39  86 E5        30.30R
ELLSWORTH AFB  CLEAR     48  38  67 N6        30.29R
PHILIP         PTCLDY    45  38  76 N9        30.29R
PINE RIDGE     CLEAR     45  39  79 CALM      30.29R
WINNER         FAIR      43  37  79 NW8       30.25R
$$

SDZ004>011-016>023-039-040-300500-
NORTHEAST SOUTH DAKOTA

CITY           SKY/WX    TMP DP  RH WIND       PRES   REMARKS
ABERDEEN       MOCLDY    49  40  71 NE10      30.24R
WATERTOWN      PTCLDY    44  38  79 N13       30.19R
BROOKINGS      MOCLDY    46  41  81 N12       30.18R
SISSETON         N/A     48  40  73 N18       30.21R
$$

SDZ017-020-022-023-036>040-048>070-300500-
SOUTHEAST SOUTH DAKOTA

CITY           SKY/WX    TMP DP  RH WIND       PRES   REMARKS
SIOUX FALLS    MOCLDY    49  43  80 N14       30.14F
HURON          PTCLDY    44  40  85 N9        30.21R
CHAMBERLAIN    PTCLDY    47  43  87 NW6       30.24R
MITCHELL       CLOUDY    51  43  74 N12       30.21R
YANKTON        MOCLDY    50  43  76 NW17G23   30.15S
$$

ABBREVIATIONS USED IN REMARKS
   TC - TEMPERATURE IN CELSIUS
  WCI - WIND CHILL INDEX
   HX - HEAT INDEX
  VSB - VISIBILITY



USA.gov is the U.S. government's official web portal to all federal, state and local government web resources and services.